Time,TemperatureF,DewpointF,PressureIn,WindDirection,WindDirectionDegrees,WindSpeedMPH,WindSpeedGustMPH,Humidity,HourlyPrecipIn,Conditions,Clouds,dailyrainin,SoftwareType,DateUTC
2013-03-29 00:00:00,33.3,22.4,29.67,SE,125,12.0,21.0,64,0.00,CLR,CLR,0.00,WeatherDisplay:10.37,2013-03-29 00:00:00,
2013-03-29 00:10:00,33.3,22.4,29.67,ESE,109,9.0,21.0,64,0.00,CLR,CLR,0.00,WeatherDisplay:10.37,2013-03-29 00:10:00,
2013-03-29 00:20:00,33.4,22.6,29.66,ESE,114,14.0,20.0,64,0.00,CLR,CLR,0.00,WeatherDisplay:10.37,2013-03-29 00:20:00,
2013-03-29 00:30:00,33.4,22.6,29.66,ESE,122,12.0,23.0,64,0.00,CLR,CLR,0.00,WeatherDisplay:10.37,2013-03-29 00:30:00,
2013-03-29 00:40:00,33.6,22.7,29.66,ESE,109,14.0,21.0,64,0.00,CLR,CLR,0.00,WeatherDisplay:10.37,2013-03-29 00:40:00,
2013-03-29 00:50:00,33.6,22.7,29.65,ESE,113,12.0,21.0,64,0.00,CLR,CLR,0.00,WeatherDisplay:10.37,2013-03-29 00:50:00,
2013-03-29 01:00:00,33.6,22.7,29.65,ESE,102,13.0,21.0,64,0.00,CLR,CLR,0.00,WeatherDisplay:10.37,2013-03-29 01:00:00,
2013-03-29 01:10:00,33.4,22.6,29.65,ESE,116,14.0,21.0,64,0.00,CLR,CLR,0.00,WeatherDisplay:10.37,2013-03-29 01:10:00,
2013-03-29 01:20:00,33.3,22.4,29.65,SE,135,15.0,23.0,64,0.00,CLR,CLR,0.00,WeatherDisplay:10.37,2013-03-29 01:20:00,
2013-03-29 01:30:00,33.2,22.4,29.64,ESE,121,14.0,22.0,64,0.00,CLR,CLR,0.00,WeatherDisplay:10.37,2013-03-29 01:30:00,
2013-03-29 01:40:00,33.1,22.2,29.65,SE,127,14.0,20.0,64,0.00,CLR,CLR,0.00,WeatherDisplay:10.37,2013-03-29 01:40:00,
2013-03-29 01:50:00,33.1,22.2,29.64,ESE,119,14.0,21.0,64,0.00,CLR,CLR,0.00,WeatherDisplay:10.37,2013-03-29 01:50:00,
2013-03-29 02:00:00,33.3,22.4,29.64,SE,127,12.0,22.0,64,0.00,CLR,CLR,0.00,WeatherDisplay:10.37,2013-03-29 02:00:00,
2013-03-29 02:10:00,33.3,22.4,29.63,SE,135,10.0,17.0,64,0.00,CLR,CLR,0.00,WeatherDisplay:10.37,2013-03-29 02:10:00,
2013-03-29 02:20:00,33.6,22.7,29.64,ESE,123,14.0,22.0,64,0.00,CLR,CLR,0.00,WeatherDisplay:10.37,2013-03-29 02:20:00,
2013-03-29 02:30:00,33.9,22.2,29.64,SE,130,12.0,21.0,62,0.00,CLR,CLR,0.00,WeatherDisplay:10.37,2013-03-29 02:30:00,
2013-03-29 02:40:00,34.2,22.5,29.64,ESE,115,12.0,21.0,62,0.00,CLR,CLR,0.00,WeatherDisplay:10.37,2013-03-29 02:40:00,
2013-03-29 02:50:00,34.2,22.5,29.64,SE,135,12.0,18.0,62,0.00,CLR,CLR,0.00,WeatherDisplay:10.37,2013-03-29 02:50:00,
2013-03-29 03:00:00,34.0,22.3,29.64,SE,125,9.0,17.0,62,0.00,CLR,CLR,0.00,WeatherDisplay:10.37,2013-03-29 03:00:00,
2013-03-29 03:10:00,33.8,22.1,29.64,SE,135,13.0,20.0,62,0.00,CLR,CLR,0.00,WeatherDisplay:10.37,2013-03-29 03:10:00,
2013-03-29 03:20:00,33.6,22.4,29.64,SE,135,14.0,20.0,63,0.00,CLR,CLR,0.00,WeatherDisplay:10.37,2013-03-29 03:20:00,
2013-03-29 03:30:00,33.6,22.4,29.64,SE,135,10.0,20.0,63,0.00,CLR,CLR,0.00,WeatherDisplay:10.37,2013-03-29 03:30:00,
2013-03-29 03:40:00,33.6,22.4,29.64,SE,135,15.0,21.0,63,0.00,CLR,CLR,0.00,WeatherDisplay:10.37,2013-03-29 03:40:00,
2013-03-29 03:50:00,33.6,22.4,29.64,SE,135,12.0,20.0,63,0.00,CLR,CLR,0.00,WeatherDisplay:10.37,2013-03-29 03:50:00,
2013-03-29 04:00:00,33.6,22.4,29.64,SE,135,13.0,20.0,63,0.00,CLR,CLR,0.00,WeatherDisplay:10.37,2013-03-29 04:00:00,
2013-03-29 04:10:00,33.8,22.1,29.64,SE,135,14.0,23.0,62,0.00,CLR,CLR,0.00,WeatherDisplay:10.37,2013-03-29 04:10:00,
2013-03-29 04:20:00,34.0,21.9,29.64,SE,135,14.0,23.0,61,0.00,CLR,CLR,0.00,WeatherDisplay:10.37,2013-03-29 04:20:00,
2013-03-29 04:30:00,34.0,21.5,29.64,SE,135,12.0,21.0,60,0.00,CLR,CLR,0.00,WeatherDisplay:10.37,2013-03-29 04:30:00,
2013-03-29 04:40:00,33.8,21.4,29.64,SE,135,12.0,21.0,60,0.00,CLR,CLR,0.00,WeatherDisplay:10.37,2013-03-29 04:40:00,
2013-03-29 04:50:00,33.6,21.6,29.64,SE,129,13.0,20.0,61,0.00,CLR,CLR,0.00,WeatherDisplay:10.37,2013-03-29 04:50:00,
2013-03-29 05:00:00,33.6,22.0,29.63,SE,124,12.0,18.0,62,0.00,CLR,CLR,0.00,WeatherDisplay:10.37,2013-03-29 05:00:00,
2013-03-29 05:10:00,33.6,21.6,29.63,SE,135,12.0,23.0,61,0.00,CLR,CLR,0.00,WeatherDisplay:10.37,2013-03-29 05:10:00,
2013-03-29 05:20:00,34.0,21.5,29.63,SE,135,10.0,21.0,60,0.00,CLR,CLR,0.00,WeatherDisplay:10.37,2013-03-29 05:20:00,
2013-03-29 05:30:00,34.5,21.2,29.63,ESE,120,14.0,21.0,58,0.00,CLR,CLR,0.00,WeatherDisplay:10.37,2013-03-29 05:30:00,
2013-03-29 05:40:00,34.7,21.4,29.63,SE,125,13.0,21.0,58,0.00,CLR,CLR,0.00,WeatherDisplay:10.37,2013-03-29 05:40:00,
2013-03-29 05:50:00,34.7,21.4,29.63,SE,133,13.0,22.0,58,0.00,CLR,CLR,0.00,WeatherDisplay:10.37,2013-03-29 05:50:00,
2013-03-29 06:00:00,34.9,21.6,29.63,ESE,116,13.0,22.0,58,0.00,CLR,CLR,0.00,WeatherDisplay:10.37,2013-03-29 06:00:00,
2013-03-29 06:10:00,35.1,21.3,29.63,SE,134,15.0,21.0,57,0.00,CLR,CLR,0.00,WeatherDisplay:10.37,2013-03-29 06:10:00,
2013-03-29 06:20:00,35.2,21.5,29.63,SE,135,13.0,22.0,57,0.00,CLR,CLR,0.00,WeatherDisplay:10.37,2013-03-29 06:20:00,
2013-03-29 06:30:00,35.4,21.3,29.64,SE,131,14.0,24.0,56,0.00,CLR,CLR,0.00,WeatherDisplay:10.37,2013-03-29 06:30:00,
2013-03-29 06:40:00,35.4,21.3,29.64,East,101,17.0,24.0,56,0.00,CLR,CLR,0.00,WeatherDisplay:10.37,2013-03-29 06:40:00,
2013-03-29 06:50:00,35.6,21.0,29.64,SE,125,14.0,21.0,55,0.00,CLR,CLR,0.00,WeatherDisplay:10.37,2013-03-29 06:50:00,
2013-03-29 07:00:00,35.6,21.0,29.64,SE,128,15.0,23.0,55,0.00,CLR,CLR,0.00,WeatherDisplay:10.37,2013-03-29 07:00:00,
2013-03-29 07:10:00,35.8,21.2,29.64,SE,132,14.0,24.0,55,0.00,CLR,CLR,0.00,WeatherDisplay:10.37,2013-03-29 07:10:00,
2013-03-29 07:20:00,35.8,21.2,29.64,SE,135,14.0,21.0,55,0.00,CLR,CLR,0.00,WeatherDisplay:10.37,2013-03-29 07:20:00,
2013-03-29 07:30:00,35.8,21.2,29.64,SE,134,13.0,23.0,55,0.00,CLR,CLR,0.00,WeatherDisplay:10.37,2013-03-29 07:30:00,
2013-03-29 07:40:00,36.0,20.9,29.64,SE,129,14.0,23.0,54,0.00,CLR,CLR,0.00,WeatherDisplay:10.37,2013-03-29 07:40:00,
2013-03-29 07:50:00,36.5,21.4,29.63,ESE,123,14.0,23.0,54,0.00,CLR,CLR,0.00,WeatherDisplay:10.37,2013-03-29 07:50:00,
2013-03-29 08:00:00,36.5,21.4,29.64,SE,135,15.0,27.0,54,0.00,CLR,CLR,0.00,WeatherDisplay:10.37,2013-03-29 08:00:00,
2013-03-29 08:10:00,36.7,21.1,29.63,SE,131,17.0,27.0,53,0.00,CLR,CLR,0.00,WeatherDisplay:10.37,2013-03-29 08:10:00,
2013-03-29 08:20:00,36.5,21.0,29.64,ESE,104,20.0,29.0,53,0.00,CLR,CLR,0.00,WeatherDisplay:10.37,2013-03-29 08:20:00,
2013-03-29 08:30:00,37.1,21.6,29.63,SE,133,14.0,29.0,53,0.00,CLR,CLR,0.00,WeatherDisplay:10.37,2013-03-29 08:30:00,
2013-03-29 08:40:00,37.9,23.5,29.63,SE,133,15.0,27.0,56,0.00,CLR,CLR,0.00,WeatherDisplay:10.37,2013-03-29 08:40:00,
2013-03-29 08:50:00,37.8,23.1,29.63,SE,135,23.0,30.0,55,0.00,CLR,CLR,0.00,WeatherDisplay:10.37,2013-03-29 08:50:00,
2013-03-29 09:00:00,37.7,23.0,29.64,SE,126,15.0,29.0,55,0.00,CLR,CLR,0.00,WeatherDisplay:10.37,2013-03-29 09:00:00,
2013-03-29 09:10:00,37.6,22.9,29.64,SE,135,24.0,35.0,55,0.00,CLR,CLR,0.00,WeatherDisplay:10.37,2013-03-29 09:10:00,
2013-03-29 09:20:00,37.8,23.0,29.64,SE,132,15.0,35.0,55,0.00,CLR,CLR,0.00,WeatherDisplay:10.37,2013-03-29 09:20:00,
2013-03-29 09:30:00,37.4,22.7,29.63,SE,130,21.0,30.0,55,0.00,CLR,CLR,0.00,WeatherDisplay:10.37,2013-03-29 09:30:00,
2013-03-29 09:40:00,37.4,22.3,29.64,SE,135,22.0,32.0,54,0.00,CLR,CLR,0.00,WeatherDisplay:10.37,2013-03-29 09:40:00,
2013-03-29 09:50:00,37.4,21.8,29.64,SE,135,21.0,32.0,53,0.00,CLR,CLR,0.00,WeatherDisplay:10.37,2013-03-29 09:50:00,
2013-03-29 10:00:00,37.5,22.7,29.64,SE,135,22.0,32.0,55,0.00,CLR,CLR,0.00,WeatherDisplay:10.37,2013-03-29 10:00:00,
2013-03-29 10:10:00,38.3,22.6,29.64,SE,135,18.0,32.0,53,0.00,CLR,CLR,0.00,WeatherDisplay:10.37,2013-03-29 10:10:00,
2013-03-29 10:20:00,37.9,22.3,29.64,SE,135,17.0,31.0,53,0.00,CLR,CLR,0.00,WeatherDisplay:10.37,2013-03-29 10:20:00,
2013-03-29 10:30:00,39.1,23.8,29.64,SE,135,13.0,29.0,54,0.00,CLR,CLR,0.00,WeatherDisplay:10.37,2013-03-29 10:30:00,
2013-03-29 10:40:00,39.5,23.3,29.64,SE,135,20.0,29.0,52,0.00,CLR,CLR,0.00,WeatherDisplay:10.37,2013-03-29 10:40:00,
2013-03-29 10:50:00,39.4,23.2,29.64,SE,135,20.0,32.0,52,0.00,CLR,CLR,0.00,WeatherDisplay:10.37,2013-03-29 10:50:00,
2013-03-29 11:00:00,40.2,23.5,29.64,SE,135,20.0,27.0,51,0.00,CLR,CLR,0.00,WeatherDisplay:10.37,2013-03-29 11:00:00,
2013-03-29 11:10:00,39.3,22.6,29.64,SE,135,20.0,28.0,51,0.00,CLR,CLR,0.00,WeatherDisplay:10.37,2013-03-29 11:10:00,
2013-03-29 11:20:00,39.4,22.3,29.64,ESE,123,21.0,29.0,50,0.00,CLR,CLR,0.00,WeatherDisplay:10.37,2013-03-29 11:20:00,
2013-03-29 11:30:00,39.2,23.0,29.64,SE,133,21.0,31.0,52,0.00,CLR,CLR,0.00,WeatherDisplay:10.37,2013-03-29 11:30:00,
2013-03-29 11:40:00,39.8,23.1,29.64,SE,135,18.0,29.0,51,0.00,CLR,CLR,0.00,WeatherDisplay:10.37,2013-03-29 11:40:00,
2013-03-29 11:50:00,40.1,23.4,29.64,SE,135,21.0,32.0,51,0.00,CLR,CLR,0.00,WeatherDisplay:10.37,2013-03-29 11:50:00,
2013-03-29 12:00:00,39.3,22.1,29.64,SE,135,21.0,33.0,50,0.00,CLR,CLR,0.00,WeatherDisplay:10.37,2013-03-29 12:00:00,
2013-03-29 12:10:00,39.3,22.2,29.63,SE,135,20.0,30.0,50,0.00,CLR,CLR,0.00,WeatherDisplay:10.37,2013-03-29 12:10:00,
2013-03-29 12:20:00,39.6,22.0,29.63,SE,135,20.0,30.0,49,0.00,CLR,CLR,0.00,WeatherDisplay:10.37,2013-03-29 12:20:00,
2013-03-29 12:30:00,39.7,22.1,29.64,SE,135,20.0,30.0,49,0.00,CLR,CLR,0.00,WeatherDisplay:10.37,2013-03-29 12:30:00,
2013-03-29 12:40:00,40.2,22.5,29.64,SE,135,21.0,28.0,49,0.00,CLR,CLR,0.00,WeatherDisplay:10.37,2013-03-29 12:40:00,
2013-03-29 12:50:00,40.4,22.7,29.63,SE,135,23.0,32.0,49,0.00,CLR,CLR,0.00,WeatherDisplay:10.37,2013-03-29 12:50:00,
2013-03-29 13:00:00,40.9,23.2,29.63,SE,135,15.0,31.0,49,0.00,CLR,CLR,0.00,WeatherDisplay:10.37,2013-03-29 13:00:00,
2013-03-29 13:10:00,40.0,22.4,29.63,SE,135,18.0,25.0,49,0.00,CLR,CLR,0.00,WeatherDisplay:10.37,2013-03-29 13:10:00,
2013-03-29 13:20:00,40.5,22.8,29.63,SE,135,15.0,25.0,49,0.00,CLR,CLR,0.00,WeatherDisplay:10.37,2013-03-29 13:20:00,
2013-03-29 13:30:00,40.8,23.1,29.63,SE,131,17.0,28.0,49,0.00,CLR,CLR,0.00,WeatherDisplay:10.37,2013-03-29 13:30:00,
2013-03-29 13:40:00,41.2,22.4,29.63,SE,135,17.0,26.0,47,0.00,CLR,CLR,0.00,WeatherDisplay:10.37,2013-03-29 13:40:00,
2013-03-29 13:50:00,41.0,22.8,29.63,SE,135,14.0,28.0,48,0.00,CLR,CLR,0.00,WeatherDisplay:10.37,2013-03-29 13:50:00,
2013-03-29 14:00:00,41.0,22.3,29.63,SE,132,15.0,24.0,47,0.00,CLR,CLR,0.00,WeatherDisplay:10.37,2013-03-29 14:00:00,
2013-03-29 14:10:00,40.7,22.5,29.62,SE,135,16.0,28.0,48,0.00,CLR,CLR,0.00,WeatherDisplay:10.37,2013-03-29 14:10:00,
2013-03-29 14:20:00,40.6,21.9,29.62,SE,135,20.0,26.0,47,0.00,CLR,CLR,0.00,WeatherDisplay:10.37,2013-03-29 14:20:00,
2013-03-29 14:30:00,41.4,22.6,29.62,SE,135,18.0,28.0,47,0.00,CLR,CLR,0.00,WeatherDisplay:10.37,2013-03-29 14:30:00,
2013-03-29 14:40:00,42.0,22.7,29.62,SE,135,12.0,26.0,46,0.00,CLR,CLR,0.00,WeatherDisplay:10.37,2013-03-29 14:40:00,
2013-03-29 14:50:00,41.9,22.1,29.62,SE,135,15.0,24.0,45,0.00,CLR,CLR,0.00,WeatherDisplay:10.37,2013-03-29 14:50:00,
2013-03-29 15:00:00,43.0,22.5,29.62,SE,135,17.0,25.0,44,0.00,CLR,CLR,0.00,WeatherDisplay:10.37,2013-03-29 15:00:00,
2013-03-29 15:10:00,41.6,21.8,29.62,SE,135,15.0,24.0,45,0.00,CLR,CLR,0.00,WeatherDisplay:10.37,2013-03-29 15:10:00,
2013-03-29 15:20:00,41.9,22.0,29.61,SE,135,18.0,23.0,45,0.00,CLR,CLR,0.00,WeatherDisplay:10.37,2013-03-29 15:20:00,
2013-03-29 15:30:00,42.1,22.2,29.61,SE,135,15.0,22.0,45,0.00,CLR,CLR,0.00,WeatherDisplay:10.37,2013-03-29 15:30:00,
2013-03-29 15:40:00,42.7,23.3,29.61,ESE,121,13.0,23.0,46,0.00,CLR,CLR,0.00,WeatherDisplay:10.37,2013-03-29 15:40:00,
2013-03-29 15:50:00,42.6,23.3,29.61,SE,132,16.0,26.0,46,0.00,CLR,CLR,0.00,WeatherDisplay:10.37,2013-03-29 15:50:00,
2013-03-29 16:00:00,42.7,23.3,29.61,SE,135,16.0,24.0,46,0.00,CLR,CLR,0.00,WeatherDisplay:10.37,2013-03-29 16:00:00,
2013-03-29 16:10:00,42.5,22.6,29.61,SE,135,16.0,28.0,45,0.00,CLR,CLR,0.00,WeatherDisplay:10.37,2013-03-29 16:10:00,
2013-03-29 16:20:00,41.9,22.6,29.61,SE,135,18.0,29.0,46,0.00,CLR,CLR,0.00,WeatherDisplay:10.37,2013-03-29 16:20:00,
2013-03-29 16:30:00,41.6,22.4,29.61,SE,135,22.0,29.0,46,0.00,CLR,CLR,0.00,WeatherDisplay:10.37,2013-03-29 16:30:00,
2013-03-29 16:40:00,41.7,22.4,29.61,SE,135,22.0,28.0,46,0.00,CLR,CLR,0.00,WeatherDisplay:10.37,2013-03-29 16:40:00,
2013-03-29 16:50:00,41.6,22.3,29.62,SE,135,23.0,29.0,46,0.00,CLR,CLR,0.00,WeatherDisplay:10.37,2013-03-29 16:50:00,
2013-03-29 17:00:00,42.2,22.9,29.61,SE,130,15.0,28.0,46,0.00,CLR,CLR,0.00,WeatherDisplay:10.37,2013-03-29 17:00:00,
2013-03-29 17:10:00,41.5,21.8,29.62,SE,135,17.0,23.0,45,0.00,CLR,CLR,0.00,WeatherDisplay:10.37,2013-03-29 17:10:00,
2013-03-29 17:20:00,41.8,22.5,29.62,SE,135,17.0,25.0,46,0.00,CLR,CLR,0.00,WeatherDisplay:10.37,2013-03-29 17:20:00,
2013-03-29 17:30:00,41.2,21.4,29.62,SE,135,20.0,29.0,45,0.00,CLR,CLR,0.00,WeatherDisplay:10.37,2013-03-29 17:30:00,
2013-03-29 17:40:00,41.3,22.1,29.62,SE,135,17.0,29.0,46,0.00,CLR,CLR,0.00,WeatherDisplay:10.37,2013-03-29 17:40:00,
2013-03-29 17:50:00,41.5,22.8,29.62,SE,135,14.0,21.0,47,0.00,CLR,CLR,0.00,WeatherDisplay:10.37,2013-03-29 17:50:00,
2013-03-29 18:00:00,40.5,22.3,29.63,SE,135,14.0,23.0,48,0.00,CLR,CLR,0.00,WeatherDisplay:10.37,2013-03-29 18:00:00,
2013-03-29 18:10:00,40.0,22.4,29.63,SE,134,15.0,20.0,49,0.00,CLR,CLR,0.00,WeatherDisplay:10.37,2013-03-29 18:10:00,
2013-03-29 18:20:00,39.9,22.8,29.63,SE,135,14.0,23.0,50,0.00,CLR,CLR,0.00,WeatherDisplay:10.37,2013-03-29 18:20:00,
2013-03-29 18:30:00,39.4,22.3,29.64,SE,135,14.0,23.0,50,0.00,CLR,CLR,0.00,WeatherDisplay:10.37,2013-03-29 18:30:00,
2013-03-29 18:40:00,39.0,22.9,29.64,SE,135,14.0,20.0,52,0.00,CLR,CLR,0.00,WeatherDisplay:10.37,2013-03-29 18:40:00,
2013-03-29 18:50:00,38.3,22.6,29.64,SE,135,9.0,15.0,53,0.00,CLR,CLR,0.00,WeatherDisplay:10.37,2013-03-29 18:50:00,
2013-03-29 19:00:00,37.8,23.0,29.64,SE,135,7.0,14.0,55,0.00,CLR,CLR,0.00,WeatherDisplay:10.37,2013-03-29 19:00:00,
2013-03-29 19:10:00,37.2,21.2,29.65,SE,135,8.0,12.0,52,0.00,CLR,CLR,0.00,WeatherDisplay:10.37,2013-03-29 19:10:00,
2013-03-29 19:20:00,37.0,21.0,29.65,SE,135,10.0,14.0,52,0.00,CLR,CLR,0.00,WeatherDisplay:10.37,2013-03-29 19:20:00,
2013-03-29 19:30:00,36.9,20.9,29.65,SE,135,12.0,15.0,52,0.00,CLR,CLR,0.00,WeatherDisplay:10.37,2013-03-29 19:30:00,
2013-03-29 19:40:00,36.9,20.9,29.65,SE,135,14.0,21.0,52,0.00,CLR,CLR,0.00,WeatherDisplay:10.37,2013-03-29 19:40:00,
2013-03-29 19:50:00,36.5,20.5,29.65,SE,135,9.0,15.0,52,0.00,CLR,CLR,0.00,WeatherDisplay:10.37,2013-03-29 19:50:00,
2013-03-29 20:00:00,35.8,20.3,29.66,SE,135,8.0,15.0,53,0.00,CLR,CLR,0.00,WeatherDisplay:10.37,2013-03-29 20:00:00,
2013-03-29 20:10:00,35.4,20.4,29.66,SE,135,10.0,13.0,54,0.00,CLR,CLR,0.00,WeatherDisplay:10.37,2013-03-29 20:10:00,
2013-03-29 20:20:00,35.1,20.5,29.66,SE,135,5.0,13.0,55,0.00,CLR,CLR,0.00,WeatherDisplay:10.37,2013-03-29 20:20:00,
2013-03-29 20:30:00,34.9,20.8,29.66,SE,135,8.0,13.0,56,0.00,CLR,CLR,0.00,WeatherDisplay:10.37,2013-03-29 20:30:00,
2013-03-29 20:40:00,34.8,20.7,29.67,SE,135,7.0,13.0,56,0.00,CLR,CLR,0.00,WeatherDisplay:10.37,2013-03-29 20:40:00,
2013-03-29 20:50:00,34.5,20.4,29.67,SE,135,6.0,15.0,56,0.00,CLR,CLR,0.00,WeatherDisplay:10.37,2013-03-29 20:50:00,
2013-03-29 21:00:00,34.2,20.5,29.67,SE,135,7.0,14.0,57,0.00,CLR,CLR,0.00,WeatherDisplay:10.37,2013-03-29 21:00:00,
2013-03-29 21:10:00,34.0,20.7,29.67,SE,135,9.0,15.0,58,0.00,CLR,CLR,0.00,WeatherDisplay:10.37,2013-03-29 21:10:00,
2013-03-29 21:20:00,34.0,20.3,29.67,SE,135,7.0,14.0,57,0.00,CLR,CLR,0.00,WeatherDisplay:10.37,2013-03-29 21:20:00,
2013-03-29 21:30:00,34.0,20.3,29.67,SE,135,5.0,13.0,57,0.00,CLR,CLR,0.00,WeatherDisplay:10.37,2013-03-29 21:30:00,
2013-03-29 21:40:00,34.2,20.9,29.67,SE,135,6.0,12.0,58,0.00,CLR,CLR,0.00,WeatherDisplay:10.37,2013-03-29 21:40:00,
2013-03-29 21:50:00,34.0,20.7,29.67,SE,135,6.0,11.0,58,0.00,CLR,CLR,0.00,WeatherDisplay:10.37,2013-03-29 21:50:00,
2013-03-29 22:00:00,34.5,22.0,29.67,SE,135,6.0,14.0,60,0.00,CLR,CLR,0.00,WeatherDisplay:10.37,2013-03-29 22:00:00,
2013-03-29 22:10:00,34.2,21.7,29.67,SE,135,6.0,10.0,60,0.00,CLR,CLR,0.00,WeatherDisplay:10.37,2013-03-29 22:10:00,
2013-03-29 22:20:00,34.2,22.1,29.67,SE,135,6.0,12.0,61,0.00,CLR,CLR,0.00,WeatherDisplay:10.37,2013-03-29 22:20:00,
2013-03-29 22:30:00,34.1,22.4,29.67,SE,135,6.0,9.0,62,0.00,CLR,CLR,0.00,WeatherDisplay:10.37,2013-03-29 22:30:00,
2013-03-29 22:40:00,33.4,22.2,29.67,SE,135,7.0,13.0,63,0.00,CLR,CLR,0.00,WeatherDisplay:10.37,2013-03-29 22:40:00,
2013-03-29 22:50:00,33.4,22.2,29.67,SE,135,5.0,11.0,63,0.00,CLR,CLR,0.00,WeatherDisplay:10.37,2013-03-29 22:50:00,
2013-03-29 23:00:00,33.3,22.0,29.67,SE,135,5.0,12.0,63,0.00,CLR,CLR,0.00,WeatherDisplay:10.37,2013-03-29 23:00:00,
2013-03-29 23:10:00,33.1,21.8,29.68,SE,135,7.0,12.0,63,0.00,CLR,CLR,0.00,WeatherDisplay:10.37,2013-03-29 23:10:00,
2013-03-29 23:20:00,32.9,21.7,29.67,SE,135,6.0,14.0,63,0.00,CLR,CLR,0.00,WeatherDisplay:10.37,2013-03-29 23:20:00,
2013-03-29 23:30:00,32.9,21.7,29.67,SE,135,8.0,14.0,63,0.00,CLR,CLR,0.00,WeatherDisplay:10.37,2013-03-29 23:30:00,
2013-03-29 23:40:00,32.9,21.7,29.67,SE,135,7.0,13.0,63,0.00,CLR,CLR,0.00,WeatherDisplay:10.37,2013-03-29 23:40:00,
2013-03-29 23:50:00,32.7,21.9,29.67,SE,135,9.0,14.0,64,0.00,CLR,CLR,0.00,WeatherDisplay:10.37,2013-03-29 23:50:00,